Time,TemperatureF,DewpointF,PressureIn,WindDirection,WindDirectionDegrees,WindSpeedMPH,WindSpeedGustMPH,Humidity,HourlyPrecipIn,Conditions,Clouds,dailyrainin,SolarRadiationWatts/m^2,SoftwareType,DateUTC
2013-02-17 00:00:00,31.4,14.9,29.71,NNW,336,6.0,6.0,50,0.00,,,0.00,0,Wunderground v.1.15,2013-02-17 05:00:00,
2013-02-17 00:01:00,31.3,14.8,29.71,NNE,24,4.0,6.0,50,0.00,,,0.00,0,Wunderground v.1.15,2013-02-17 05:01:00,
2013-02-17 00:05:00,31.4,14.9,29.71,NW,316,4.0,7.0,50,0.00,,,0.00,0,Wunderground v.1.15,2013-02-17 05:05:00,
2013-02-17 00:10:00,31.3,14.3,29.71,NNW,333,5.0,5.0,49,0.00,,,0.00,0,Wunderground v.1.15,2013-02-17 05:10:00,
2013-02-17 00:14:00,31.3,14.3,29.71,NNW,329,9.0,9.0,49,0.00,,,0.00,0,Wunderground v.1.15,2013-02-17 05:14:00,
2013-02-17 00:19:00,31.2,14.2,29.72,NNE,25,4.0,13.0,49,0.00,,,0.00,0,Wunderground v.1.15,2013-02-17 05:19:00,
2013-02-17 00:25:00,31.1,14.6,29.70,NNW,348,4.0,13.0,50,0.00,,,0.00,0,Wunderground v.1.15,2013-02-17 05:25:00,
2013-02-17 00:31:00,30.8,14.3,29.69,NNE,29,6.0,8.0,50,0.00,,,0.00,0,Wunderground v.1.15,2013-02-17 05:31:00,
2013-02-17 00:36:00,30.8,14.3,29.68,NW,310,3.0,11.0,50,0.00,,,0.00,0,Wunderground v.1.15,2013-02-17 05:36:00,
2013-02-17 00:42:00,30.7,13.8,29.68,NNE,24,8.0,12.0,49,0.00,,,0.00,0,Wunderground v.1.15,2013-02-17 05:42:00,
2013-02-17 00:47:00,30.9,14.0,29.69,NNW,341,3.0,18.0,49,0.00,,,0.00,0,Wunderground v.1.15,2013-02-17 05:47:00,
2013-02-17 00:52:00,30.9,13.5,29.69,NNW,327,7.0,7.0,48,0.00,,,0.00,0,Wunderground v.1.15,2013-02-17 05:52:00,
2013-02-17 00:58:00,31.0,13.6,29.70,NNW,335,6.0,13.0,48,0.00,,,0.00,0,Wunderground v.1.15,2013-02-17 05:58:00,
2013-02-17 01:03:00,30.9,13.0,29.70,NW,319,6.0,7.0,47,0.00,,,0.00,0,Wunderground v.1.15,2013-02-17 06:03:00,
2013-02-17 01:09:00,30.9,13.0,29.70,North,358,7.0,12.0,47,0.00,,,0.00,0,Wunderground v.1.15,2013-02-17 06:09:00,
2013-02-17 01:15:00,31.0,12.6,29.70,North,0,7.0,8.0,46,0.00,,,0.00,0,Wunderground v.1.15,2013-02-17 06:15:00,
2013-02-17 01:21:00,30.8,11.4,29.70,North,0,3.0,6.0,44,0.00,,,0.00,0,Wunderground v.1.15,2013-02-17 06:21:00,
2013-02-17 01:26:00,30.9,11.5,29.70,North,1,12.0,12.0,44,0.00,,,0.00,0,Wunderground v.1.15,2013-02-17 06:26:00,
2013-02-17 01:32:00,30.8,10.9,29.70,NNW,330,10.0,10.0,43,0.00,,,0.00,0,Wunderground v.1.15,2013-02-17 06:32:00,
2013-02-17 01:37:00,30.6,10.7,29.69,NW,320,5.0,14.0,43,0.00,,,0.00,0,Wunderground v.1.15,2013-02-17 06:37:00,
2013-02-17 01:43:00,30.6,10.2,29.69,North,350,6.0,11.0,42,0.00,,,0.00,0,Wunderground v.1.15,2013-02-17 06:43:00,
2013-02-17 01:49:00,30.4,10.0,29.69,NNW,328,11.0,11.0,42,0.00,,,0.00,0,Wunderground v.1.15,2013-02-17 06:49:00,
2013-02-17 01:54:00,30.4,10.0,29.69,NNW,340,4.0,9.0,42,0.00,,,0.00,0,Wunderground v.1.15,2013-02-17 06:54:00,
2013-02-17 01:59:00,30.2,9.8,29.68,NNW,338,9.0,9.0,42,0.00,,,0.00,0,Wunderground v.1.15,2013-02-17 06:59:00,
2013-02-17 02:04:00,30.2,9.3,29.68,North,2,4.0,11.0,41,0.00,,,0.00,0,Wunderground v.1.15,2013-02-17 07:04:00,
2013-02-17 02:09:00,30.3,9.4,29.68,North,349,12.0,18.0,41,0.00,,,0.00,0,Wunderground v.1.15,2013-02-17 07:09:00,
2013-02-17 02:14:00,30.1,9.2,29.68,North,358,9.0,14.0,41,0.00,,,0.00,0,Wunderground v.1.15,2013-02-17 07:14:00,
2013-02-17 02:19:00,30.1,9.2,29.67,North,359,6.0,18.0,41,0.00,,,0.00,0,Wunderground v.1.15,2013-02-17 07:19:00,
2013-02-17 02:24:00,30.0,9.1,29.68,NNW,342,2.0,20.0,41,0.00,,,0.00,0,Wunderground v.1.15,2013-02-17 07:24:00,
2013-02-17 02:29:00,30.1,8.7,29.68,NNW,331,8.0,20.0,40,0.00,,,0.00,0,Wunderground v.1.15,2013-02-17 07:29:00,
2013-02-17 02:34:00,29.9,8.5,29.68,NNW,342,5.0,19.0,40,0.00,,,0.00,0,Wunderground v.1.15,2013-02-17 07:34:00,
2013-02-17 02:39:00,29.9,8.5,29.68,NW,326,5.0,19.0,40,0.00,,,0.00,0,Wunderground v.1.15,2013-02-17 07:39:00,
2013-02-17 02:44:00,29.8,8.4,29.68,NNW,333,7.0,16.0,40,0.00,,,0.00,0,Wunderground v.1.15,2013-02-17 07:44:00,
2013-02-17 02:49:00,29.9,8.5,29.68,North,353,5.0,16.0,40,0.00,,,0.00,0,Wunderground v.1.15,2013-02-17 07:49:00,
2013-02-17 02:54:00,29.8,8.4,29.68,NNW,343,11.0,21.0,40,0.00,,,0.00,0,Wunderground v.1.15,2013-02-17 07:54:00,
2013-02-17 02:59:00,29.7,7.7,29.68,NNW,336,7.0,21.0,39,0.00,,,0.00,0,Wunderground v.1.15,2013-02-17 07:59:00,
2013-02-17 03:05:00,29.8,7.8,29.68,NW,305,7.0,20.0,39,0.00,,,0.00,0,Wunderground v.1.15,2013-02-17 08:05:00,
2013-02-17 03:10:00,29.5,7.5,29.67,NNW,336,8.0,8.0,39,0.00,,,0.00,0,Wunderground v.1.15,2013-02-17 08:10:00,
2013-02-17 03:15:00,29.5,8.1,29.67,WNW,298,6.0,12.0,40,0.00,,,0.00,0,Wunderground v.1.15,2013-02-17 08:15:00,
2013-02-17 03:20:00,29.6,8.2,29.67,North,353,1.0,1.0,40,0.00,,,0.00,0,Wunderground v.1.15,2013-02-17 08:20:00,
2013-02-17 03:25:00,29.6,8.2,29.68,NNW,328,5.0,16.0,40,0.00,,,0.00,0,Wunderground v.1.15,2013-02-17 08:25:00,
2013-02-17 03:30:00,29.4,8.0,29.68,North,2,5.0,5.0,40,0.00,,,0.00,0,Wunderground v.1.15,2013-02-17 08:30:00,
2013-02-17 03:35:00,29.4,8.0,29.67,NW,324,10.0,15.0,40,0.00,,,0.00,0,Wunderground v.1.15,2013-02-17 08:35:00,
2013-02-17 03:40:00,29.3,7.9,29.67,North,9,4.0,9.0,40,0.00,,,0.00,0,Wunderground v.1.15,2013-02-17 08:40:00,
2013-02-17 03:45:00,29.4,8.0,29.67,North,7,5.0,9.0,40,0.00,,,0.00,0,Wunderground v.1.15,2013-02-17 08:45:00,
2013-02-17 03:50:00,29.3,7.9,29.67,NNW,329,2.0,6.0,40,0.00,,,0.00,0,Wunderground v.1.15,2013-02-17 08:50:00,
2013-02-17 03:55:00,29.1,7.7,29.67,NNW,342,14.0,15.0,40,0.00,,,0.00,0,Wunderground v.1.15,2013-02-17 08:55:00,
2013-02-17 04:00:00,29.1,7.7,29.67,WNW,298,1.0,3.0,40,0.00,,,0.00,0,Wunderground v.1.15,2013-02-17 09:00:00,
2013-02-17 04:05:00,29.1,7.7,29.67,North,4,8.0,15.0,40,0.00,,,0.00,0,Wunderground v.1.15,2013-02-17 09:05:00,
2013-02-17 04:10:00,29.1,7.7,29.66,NNW,347,10.0,10.0,40,0.00,,,0.00,0,Wunderground v.1.15,2013-02-17 09:10:00,
2013-02-17 04:15:00,29.2,7.8,29.66,North,358,12.0,16.0,40,0.00,,,0.00,0,Wunderground v.1.15,2013-02-17 09:15:00,
2013-02-17 04:20:00,29.0,7.7,29.66,NW,317,2.0,5.0,40,0.00,,,0.00,0,Wunderground v.1.15,2013-02-17 09:20:00,
2013-02-17 04:25:00,29.0,7.7,29.66,NNW,338,1.0,10.0,40,0.00,,,0.00,0,Wunderground v.1.15,2013-02-17 09:25:00,
2013-02-17 04:30:00,29.0,7.7,29.67,North,351,12.0,20.0,40,0.00,,,0.00,0,Wunderground v.1.15,2013-02-17 09:30:00,
2013-02-17 04:35:00,28.8,7.5,29.67,NW,319,2.0,20.0,40,0.00,,,0.00,0,Wunderground v.1.15,2013-02-17 09:35:00,
2013-02-17 04:40:00,28.9,7.6,29.66,NW,304,6.0,7.0,40,0.00,,,0.00,0,Wunderground v.1.15,2013-02-17 09:40:00,
2013-02-17 04:45:00,28.7,7.4,29.67,WNW,295,6.0,13.0,40,0.00,,,0.00,0,Wunderground v.1.15,2013-02-17 09:45:00,
2013-02-17 04:50:00,28.8,7.5,29.67,NNW,332,6.0,13.0,40,0.00,,,0.00,0,Wunderground v.1.15,2013-02-17 09:50:00,
2013-02-17 04:55:00,28.7,7.4,29.67,NW,323,7.0,14.0,40,0.00,,,0.00,0,Wunderground v.1.15,2013-02-17 09:55:00,
2013-02-17 05:00:00,28.8,7.5,29.67,NNW,330,8.0,9.0,40,0.00,,,0.00,0,Wunderground v.1.15,2013-02-17 10:00:00,
2013-02-17 05:05:00,28.7,7.4,29.68,NNW,338,5.0,12.0,40,0.00,,,0.00,0,Wunderground v.1.15,2013-02-17 10:05:00,
2013-02-17 05:10:00,28.6,7.3,29.68,NW,314,4.0,5.0,40,0.00,,,0.00,0,Wunderground v.1.15,2013-02-17 10:10:00,
2013-02-17 05:15:00,28.5,7.2,29.68,NW,325,2.0,12.0,40,0.00,,,0.00,0,Wunderground v.1.15,2013-02-17 10:15:00,
2013-02-17 05:20:00,28.6,7.3,29.68,West,279,1.0,6.0,40,0.00,,,0.00,0,Wunderground v.1.15,2013-02-17 10:20:00,
2013-02-17 05:25:00,28.5,7.2,29.67,North,353,1.0,17.0,40,0.00,,,0.00,0,Wunderground v.1.15,2013-02-17 10:25:00,
2013-02-17 05:30:00,28.4,7.1,29.67,NNW,334,4.0,15.0,40,0.00,,,0.00,0,Wunderground v.1.15,2013-02-17 10:30:00,
2013-02-17 05:35:00,28.4,7.7,29.67,NNW,340,4.0,15.0,41,0.00,,,0.00,0,Wunderground v.1.15,2013-02-17 10:35:00,
2013-02-17 05:41:00,28.4,7.7,29.67,NNW,330,4.0,9.0,41,0.00,,,0.00,0,Wunderground v.1.15,2013-02-17 10:41:00,
2013-02-17 05:46:00,28.3,7.0,29.67,NNW,327,4.0,11.0,40,0.00,,,0.00,0,Wunderground v.1.15,2013-02-17 10:46:00,
2013-02-17 05:51:00,28.5,7.2,29.67,West,267,3.0,5.0,40,0.00,,,0.00,0,Wunderground v.1.15,2013-02-17 10:51:00,
2013-02-17 05:56:00,28.4,7.1,29.66,NNW,328,4.0,7.0,40,0.00,,,0.00,0,Wunderground v.1.15,2013-02-17 10:56:00,
2013-02-17 06:01:00,28.3,5.9,29.67,NNW,338,6.0,15.0,38,0.00,,,0.00,0,Wunderground v.1.15,2013-02-17 11:01:00,
2013-02-17 06:06:00,28.3,5.3,29.67,NW,318,5.0,17.0,37,0.00,,,0.00,0,Wunderground v.1.15,2013-02-17 11:06:00,
2013-02-17 06:11:00,28.2,4.6,29.67,NNW,342,4.0,8.0,36,0.00,,,0.00,0,Wunderground v.1.15,2013-02-17 11:11:00,
2013-02-17 06:16:00,28.4,4.8,29.67,NNW,338,9.0,14.0,36,0.00,,,0.00,0,Wunderground v.1.15,2013-02-17 11:16:00,
2013-02-17 06:21:00,28.2,4.0,29.67,NNW,333,3.0,15.0,35,0.00,,,0.00,0,Wunderground v.1.15,2013-02-17 11:21:00,
2013-02-17 06:26:00,28.1,3.3,29.67,NNW,347,8.0,20.0,34,0.00,,,0.00,0,Wunderground v.1.15,2013-02-17 11:26:00,
2013-02-17 06:31:00,28.3,3.5,29.68,NNW,338,17.0,17.0,34,0.00,,,0.00,0,Wunderground v.1.15,2013-02-17 11:31:00,
2013-02-17 06:36:00,27.9,2.5,29.68,NNW,338,8.0,17.0,33,0.00,,,0.00,0,Wunderground v.1.15,2013-02-17 11:36:00,
2013-02-17 06:41:00,28.0,2.6,29.68,North,358,3.0,6.0,33,0.00,,,0.00,0,Wunderground v.1.15,2013-02-17 11:41:00,
2013-02-17 06:46:00,28.0,2.6,29.68,NNW,333,10.0,17.0,33,0.00,,,0.00,0,Wunderground v.1.15,2013-02-17 11:46:00,
2013-02-17 06:51:00,28.1,2.6,29.68,NW,324,7.0,15.0,33,0.00,,,0.00,0,Wunderground v.1.15,2013-02-17 11:51:00,
2013-02-17 06:56:00,27.8,2.4,29.69,WNW,290,4.0,15.0,33,0.00,,,0.00,0,Wunderground v.1.15,2013-02-17 11:56:00,
2013-02-17 07:01:00,27.8,2.4,29.69,NNW,347,13.0,13.0,33,0.00,,,0.00,0,Wunderground v.1.15,2013-02-17 12:01:00,
2013-02-17 07:06:00,27.8,2.4,29.69,WNW,303,9.0,17.0,33,0.00,,,0.00,0,Wunderground v.1.15,2013-02-17 12:06:00,
2013-02-17 07:11:00,27.9,2.5,29.69,NNW,331,15.0,15.0,33,0.00,,,0.00,0,Wunderground v.1.15,2013-02-17 12:11:00,
2013-02-17 07:16:00,27.8,1.7,29.69,West,281,12.0,24.0,32,0.00,,,0.00,0,Wunderground v.1.15,2013-02-17 12:16:00,
2013-02-17 07:21:00,27.7,1.6,29.69,West,278,13.0,13.0,32,0.00,,,0.00,0,Wunderground v.1.15,2013-02-17 12:21:00,
2013-02-17 07:26:00,27.6,2.2,29.69,West,280,2.0,16.0,33,0.00,,,0.00,0,Wunderground v.1.15,2013-02-17 12:26:00,
2013-02-17 07:31:00,27.6,2.2,29.70,WNW,301,5.0,10.0,33,0.00,,,0.00,0,Wunderground v.1.15,2013-02-17 12:31:00,
2013-02-17 07:36:00,27.6,2.2,29.70,NW,307,11.0,14.0,33,0.00,,,0.00,0,Wunderground v.1.15,2013-02-17 12:36:00,
2013-02-17 07:41:00,27.7,2.3,29.70,NW,323,2.0,10.0,33,0.00,,,0.00,0,Wunderground v.1.15,2013-02-17 12:41:00,
2013-02-17 07:46:00,27.7,2.3,29.70,NNW,333,7.0,17.0,33,0.00,,,0.00,0,Wunderground v.1.15,2013-02-17 12:46:00,
2013-02-17 07:51:00,27.8,2.4,29.70,NNW,341,11.0,14.0,33,0.00,,,0.00,0,Wunderground v.1.15,2013-02-17 12:51:00,
2013-02-17 07:56:00,27.8,1.7,29.70,NW,323,7.0,18.0,32,0.00,,,0.00,0,Wunderground v.1.15,2013-02-17 12:56:00,
2013-02-17 08:01:00,27.7,1.6,29.70,WNW,301,5.0,15.0,32,0.00,,,0.00,0,Wunderground v.1.15,2013-02-17 13:01:00,
2013-02-17 08:06:00,27.7,1.6,29.70,WNW,299,3.0,20.0,32,0.00,,,0.00,0,Wunderground v.1.15,2013-02-17 13:06:00,
2013-02-17 08:11:00,27.9,1.8,29.70,NNW,337,4.0,10.0,32,0.00,,,0.00,0,Wunderground v.1.15,2013-02-17 13:11:00,
2013-02-17 08:16:00,27.9,1.8,29.70,WNW,296,7.0,14.0,32,0.00,,,0.00,0,Wunderground v.1.15,2013-02-17 13:16:00,
2013-02-17 08:21:00,28.2,2.1,29.70,NNW,345,12.0,12.0,32,0.00,,,0.00,0,Wunderground v.1.15,2013-02-17 13:21:00,
2013-02-17 08:26:00,28.3,2.2,29.70,NNW,330,9.0,19.0,32,0.00,,,0.00,0,Wunderground v.1.15,2013-02-17 13:26:00,
2013-02-17 08:31:00,28.3,2.2,29.69,NNW,341,5.0,13.0,32,0.00,,,0.00,0,Wunderground v.1.15,2013-02-17 13:31:00,
2013-02-17 08:36:00,28.6,1.7,29.69,NW,307,14.0,22.0,31,0.00,,,0.00,0,Wunderground v.1.15,2013-02-17 13:36:00,
2013-02-17 08:41:00,28.6,1.7,29.70,NNW,331,15.0,15.0,31,0.00,,,0.00,0,Wunderground v.1.15,2013-02-17 13:41:00,
2013-02-17 08:46:00,28.8,2.6,29.69,WNW,291,5.0,21.0,32,0.00,,,0.00,0,Wunderground v.1.15,2013-02-17 13:46:00,
2013-02-17 08:51:00,29.0,2.1,29.69,NNW,335,9.0,21.0,31,0.00,,,0.00,0,Wunderground v.1.15,2013-02-17 13:51:00,
2013-02-17 08:56:00,29.1,2.2,29.70,NNW,333,10.0,21.0,31,0.00,,,0.00,0,Wunderground v.1.15,2013-02-17 13:56:00,
2013-02-17 09:01:00,29.2,2.3,29.70,WNW,293,6.0,13.0,31,0.00,,,0.00,0,Wunderground v.1.15,2013-02-17 14:01:00,
2013-02-17 09:06:00,29.5,2.5,29.70,NNW,328,10.0,17.0,31,0.00,,,0.00,0,Wunderground v.1.15,2013-02-17 14:06:00,
2013-02-17 09:11:00,29.6,2.6,29.70,NW,325,11.0,17.0,31,0.00,,,0.00,0,Wunderground v.1.15,2013-02-17 14:11:00,
2013-02-17 09:16:00,29.6,1.9,29.70,North,351,9.0,18.0,30,0.00,,,0.00,0,Wunderground v.1.15,2013-02-17 14:16:00,
2013-02-17 09:21:00,29.6,1.9,29.70,NW,311,10.0,17.0,30,0.00,,,0.00,0,Wunderground v.1.15,2013-02-17 14:21:00,
2013-02-17 09:26:00,29.8,2.8,29.70,NW,318,9.0,23.0,31,0.00,,,0.00,0,Wunderground v.1.15,2013-02-17 14:26:00,
2013-02-17 09:31:00,30.2,2.4,29.70,NW,308,9.0,12.0,30,0.00,,,0.00,0,Wunderground v.1.15,2013-02-17 14:31:00,
2013-02-17 09:36:00,30.1,2.3,29.70,NW,321,13.0,22.0,30,0.00,,,0.00,0,Wunderground v.1.15,2013-02-17 14:36:00,
2013-02-17 09:41:00,30.2,2.4,29.71,NNW,334,19.0,21.0,30,0.00,,,0.00,0,Wunderground v.1.15,2013-02-17 14:41:00,
2013-02-17 09:46:00,30.0,2.3,29.70,NW,315,12.0,30.0,30,0.00,,,0.00,0,Wunderground v.1.15,2013-02-17 14:46:00,
2013-02-17 09:51:00,30.1,2.3,29.70,NW,313,6.0,22.0,30,0.00,,,0.00,0,Wunderground v.1.15,2013-02-17 14:51:00,
2013-02-17 09:56:00,30.3,1.8,29.71,NW,311,6.0,22.0,29,0.00,,,0.00,0,Wunderground v.1.15,2013-02-17 14:56:00,
2013-02-17 10:01:00,30.3,1.8,29.70,North,2,7.0,20.0,29,0.00,,,0.00,0,Wunderground v.1.15,2013-02-17 15:01:00,
2013-02-17 10:07:00,30.4,1.9,29.71,NW,326,11.0,25.0,29,0.00,,,0.00,0,Wunderground v.1.15,2013-02-17 15:07:00,
2013-02-17 10:12:00,30.4,1.1,29.70,NW,322,24.0,25.0,28,0.00,,,0.00,0,Wunderground v.1.15,2013-02-17 15:12:00,
2013-02-17 10:17:00,30.5,2.0,29.71,NW,315,7.0,25.0,29,0.00,,,0.00,0,Wunderground v.1.15,2013-02-17 15:17:00,
2013-02-17 10:22:00,30.9,1.6,29.71,NNW,329,7.0,24.0,28,0.00,,,0.00,0,Wunderground v.1.15,2013-02-17 15:22:00,
2013-02-17 10:27:00,30.9,1.6,29.71,West,276,11.0,24.0,28,0.00,,,0.00,0,Wunderground v.1.15,2013-02-17 15:27:00,
2013-02-17 10:32:00,30.7,1.4,29.71,NW,321,11.0,31.0,28,0.00,,,0.00,0,Wunderground v.1.15,2013-02-17 15:32:00,
2013-02-17 10:37:00,31.1,1.7,29.71,NW,314,13.0,31.0,28,0.00,,,0.00,0,Wunderground v.1.15,2013-02-17 15:37:00,
2013-02-17 10:42:00,31.0,1.6,29.71,NNW,343,14.0,21.0,28,0.00,,,0.00,0,Wunderground v.1.15,2013-02-17 15:42:00,
2013-02-17 10:47:00,31.2,1.8,29.72,NNW,333,10.0,27.0,28,0.00,,,0.00,0,Wunderground v.1.15,2013-02-17 15:47:00,
2013-02-17 10:52:00,31.3,1.9,29.72,NW,321,19.0,19.0,28,0.00,,,0.00,0,Wunderground v.1.15,2013-02-17 15:52:00,
2013-02-17 10:57:00,31.2,1.8,29.72,NNW,346,12.0,25.0,28,0.00,,,0.00,0,Wunderground v.1.15,2013-02-17 15:57:00,
2013-02-17 11:02:00,31.3,1.9,29.72,WNW,302,8.0,15.0,28,0.00,,,0.00,0,Wunderground v.1.15,2013-02-17 16:02:00,
2013-02-17 11:07:00,31.6,2.2,29.72,WNW,301,7.0,19.0,28,0.00,,,0.00,0,Wunderground v.1.15,2013-02-17 16:07:00,
2013-02-17 11:12:00,31.9,2.4,29.72,North,351,11.0,18.0,28,0.00,,,0.00,0,Wunderground v.1.15,2013-02-17 16:12:00,
2013-02-17 11:17:00,32.0,2.5,29.73,NNW,347,2.0,18.0,28,0.00,,,0.00,0,Wunderground v.1.15,2013-02-17 16:17:00,
2013-02-17 11:22:00,32.0,2.5,29.73,SW,223,7.0,21.0,28,0.00,,,0.00,0,Wunderground v.1.15,2013-02-17 16:22:00,
2013-02-17 11:27:00,31.8,1.6,29.73,West,275,14.0,21.0,27,0.00,,,0.00,0,Wunderground v.1.15,2013-02-17 16:27:00,
2013-02-17 11:32:00,31.7,0.7,29.73,NW,309,10.0,21.0,26,0.00,,,0.00,0,Wunderground v.1.15,2013-02-17 16:32:00,
2013-02-17 11:37:00,31.7,2.3,29.73,NW,304,10.0,21.0,28,0.00,,,0.00,0,Wunderground v.1.15,2013-02-17 16:37:00,
2013-02-17 11:42:00,31.8,2.3,29.73,NW,315,9.0,18.0,28,0.00,,,0.00,0,Wunderground v.1.15,2013-02-17 16:42:00,
2013-02-17 11:47:00,32.0,2.5,29.72,NNW,339,10.0,28.0,28,0.00,,,0.00,0,Wunderground v.1.15,2013-02-17 16:47:00,
2013-02-17 11:52:00,32.2,2.7,29.73,NNW,328,9.0,19.0,28,0.00,,,0.00,0,Wunderground v.1.15,2013-02-17 16:52:00,
2013-02-17 11:57:00,32.6,3.0,29.72,West,262,6.0,19.0,28,0.00,,,0.00,0,Wunderground v.1.15,2013-02-17 16:57:00,
2013-02-17 12:02:00,32.7,3.1,29.72,NW,313,5.0,22.0,28,0.00,,,0.00,0,Wunderground v.1.15,2013-02-17 17:02:00,
2013-02-17 12:07:00,32.9,4.1,29.72,NNW,339,4.0,22.0,29,0.00,,,0.00,0,Wunderground v.1.15,2013-02-17 17:07:00,
2013-02-17 12:12:00,32.8,3.2,29.73,NW,305,8.0,17.0,28,0.00,,,0.00,0,Wunderground v.1.15,2013-02-17 17:12:00,
2013-02-17 12:17:00,32.4,2.1,29.72,WNW,294,8.0,21.0,27,0.00,,,0.00,0,Wunderground v.1.15,2013-02-17 17:17:00,
2013-02-17 12:22:00,32.6,3.0,29.72,WNW,295,7.0,19.0,28,0.00,,,0.00,0,Wunderground v.1.15,2013-02-17 17:22:00,
2013-02-17 12:27:00,32.5,2.9,29.72,NNW,344,18.0,21.0,28,0.00,,,0.00,0,Wunderground v.1.15,2013-02-17 17:27:00,
2013-02-17 12:32:00,33.0,3.4,29.73,NNW,333,8.0,22.0,28,0.00,,,0.00,0,Wunderground v.1.15,2013-02-17 17:32:00,
2013-02-17 12:37:00,33.3,3.6,29.73,West,277,5.0,22.0,28,0.00,,,0.00,0,Wunderground v.1.15,2013-02-17 17:37:00,
2013-02-17 12:42:00,33.3,2.9,29.73,WSW,240,3.0,14.0,27,0.00,,,0.00,0,Wunderground v.1.15,2013-02-17 17:42:00,
2013-02-17 12:47:00,33.1,2.7,29.73,WNW,296,10.0,20.0,27,0.00,,,0.00,0,Wunderground v.1.15,2013-02-17 17:47:00,
2013-02-17 12:52:00,33.1,3.5,29.73,NNW,339,5.0,14.0,28,0.00,,,0.00,0,Wunderground v.1.15,2013-02-17 17:52:00,
2013-02-17 12:57:00,33.4,2.9,29.73,NW,318,2.0,19.0,27,0.00,,,0.00,0,Wunderground v.1.15,2013-02-17 17:57:00,
2013-02-17 13:02:00,33.5,3.0,29.73,WNW,291,13.0,22.0,27,0.00,,,0.00,0,Wunderground v.1.15,2013-02-17 18:02:00,
2013-02-17 13:07:00,33.3,2.9,29.73,NW,326,10.0,22.0,27,0.00,,,0.00,0,Wunderground v.1.15,2013-02-17 18:07:00,
2013-02-17 13:12:00,33.3,2.9,29.74,WNW,287,5.0,18.0,27,0.00,,,0.00,0,Wunderground v.1.15,2013-02-17 18:12:00,
2013-02-17 13:17:00,33.7,3.2,29.74,WSW,252,4.0,18.0,27,0.00,,,0.00,0,Wunderground v.1.15,2013-02-17 18:17:00,
2013-02-17 13:22:00,33.7,4.0,29.74,WNW,291,2.0,15.0,28,0.00,,,0.00,0,Wunderground v.1.15,2013-02-17 18:22:00,
2013-02-17 13:27:00,33.7,4.0,29.74,WNW,294,4.0,19.0,28,0.00,,,0.00,0,Wunderground v.1.15,2013-02-17 18:27:00,
2013-02-17 13:32:00,33.4,2.9,29.74,NW,305,8.0,19.0,27,0.00,,,0.00,0,Wunderground v.1.15,2013-02-17 18:32:00,
2013-02-17 13:37:00,32.8,2.4,29.74,NW,317,3.0,28.0,27,0.00,,,0.00,0,Wunderground v.1.15,2013-02-17 18:37:00,
2013-02-17 13:42:00,33.4,3.7,29.74,West,277,6.0,16.0,28,0.00,,,0.00,0,Wunderground v.1.15,2013-02-17 18:42:00,
2013-02-17 13:47:00,34.1,2.7,29.75,NW,317,7.0,16.0,26,0.00,,,0.00,0,Wunderground v.1.15,2013-02-17 18:47:00,
2013-02-17 13:52:00,33.4,2.9,29.74,NNW,333,9.0,21.0,27,0.00,,,0.00,0,Wunderground v.1.15,2013-02-17 18:52:00,
2013-02-17 13:57:00,32.8,2.4,29.74,NW,316,4.0,29.0,27,0.00,,,0.00,0,Wunderground v.1.15,2013-02-17 18:57:00,
2013-02-17 14:03:00,32.6,3.0,29.74,WSW,255,4.0,15.0,28,0.00,,,0.00,0,Wunderground v.1.15,2013-02-17 19:03:00,
2013-02-17 14:08:00,33.1,2.7,29.74,North,351,21.0,23.0,27,0.00,,,0.00,0,Wunderground v.1.15,2013-02-17 19:08:00,
2013-02-17 14:12:00,32.4,2.1,29.75,West,259,5.0,17.0,27,0.00,,,0.00,0,Wunderground v.1.15,2013-02-17 19:12:00,
2013-02-17 14:17:00,32.6,1.4,29.74,NW,309,2.0,18.0,26,0.00,,,0.00,0,Wunderground v.1.15,2013-02-17 19:17:00,
2013-02-17 14:22:00,32.7,3.1,29.75,NW,315,21.0,25.0,28,0.00,,,0.00,0,Wunderground v.1.15,2013-02-17 19:22:00,
2013-02-17 14:28:00,32.8,2.4,29.74,North,354,3.0,25.0,27,0.00,,,0.00,0,Wunderground v.1.15,2013-02-17 19:28:00,
2013-02-17 14:33:00,33.4,2.9,29.75,NW,322,3.0,15.0,27,0.00,,,0.00,0,Wunderground v.1.15,2013-02-17 19:33:00,
2013-02-17 14:38:00,32.4,1.3,29.75,NW,306,8.0,25.0,26,0.00,,,0.00,0,Wunderground v.1.15,2013-02-17 19:38:00,
2013-02-17 14:43:00,31.5,1.3,29.76,West,277,9.0,26.0,27,0.00,,,0.00,0,Wunderground v.1.15,2013-02-17 19:43:00,
2013-02-17 14:48:00,30.9,0.8,29.76,NNW,346,7.0,26.0,27,0.00,,,0.00,0,Wunderground v.1.15,2013-02-17 19:48:00,
2013-02-17 14:53:00,31.2,1.8,29.76,NNW,329,14.0,19.0,28,0.00,,,0.00,0,Wunderground v.1.15,2013-02-17 19:53:00,
2013-02-17 14:58:00,31.5,2.1,29.76,NNW,339,19.0,28.0,28,0.00,,,0.00,0,Wunderground v.1.15,2013-02-17 19:58:00,
2013-02-17 15:04:00,31.6,1.4,29.76,NNW,333,12.0,18.0,27,0.00,,,0.00,0,Wunderground v.1.15,2013-02-17 20:04:00,
2013-02-17 15:09:00,31.5,1.3,29.76,WNW,299,7.0,20.0,27,0.00,,,0.00,0,Wunderground v.1.15,2013-02-17 20:09:00,
2013-02-17 15:14:00,31.2,1.0,29.76,NNW,338,7.0,19.0,27,0.00,,,0.00,0,Wunderground v.1.15,2013-02-17 20:14:00,
2013-02-17 15:19:00,30.8,1.5,29.77,WNW,285,5.0,19.0,28,0.00,,,0.00,0,Wunderground v.1.15,2013-02-17 20:19:00,
2013-02-17 15:24:00,30.3,1.0,29.77,NW,319,2.0,22.0,28,0.00,,,0.00,0,Wunderground v.1.15,2013-02-17 20:24:00,
2013-02-17 15:29:00,29.9,0.7,29.77,NNW,337,6.0,22.0,28,0.00,,,0.00,0,Wunderground v.1.15,2013-02-17 20:29:00,
2013-02-17 15:34:00,29.9,0.7,29.77,NNW,348,6.0,19.0,28,0.00,,,0.00,0,Wunderground v.1.15,2013-02-17 20:34:00,
2013-02-17 15:39:00,29.6,-0.3,29.77,North,349,13.0,24.0,27,0.00,,,0.00,0,Wunderground v.1.15,2013-02-17 20:39:00,
2013-02-17 15:44:00,29.6,-0.3,29.77,NNW,328,6.0,16.0,27,0.00,,,0.00,0,Wunderground v.1.15,2013-02-17 20:44:00,
2013-02-17 15:49:00,29.5,0.3,29.78,West,269,8.0,27.0,28,0.00,,,0.00,0,Wunderground v.1.15,2013-02-17 20:49:00,
2013-02-17 15:54:00,29.8,1.4,29.78,WNW,299,8.0,32.0,29,0.00,,,0.00,0,Wunderground v.1.15,2013-02-17 20:54:00,
2013-02-17 16:00:00,30.0,1.5,29.78,NNW,332,8.0,8.0,29,0.00,,,0.00,0,Wunderground v.1.15,2013-02-17 21:00:00,
2013-02-17 16:05:00,30.6,2.1,29.78,WNW,297,4.0,22.0,29,0.00,,,0.00,0,Wunderground v.1.15,2013-02-17 21:05:00,
2013-02-17 16:10:00,30.4,1.9,29.78,WSW,250,1.0,3.0,29,0.00,,,0.00,0,Wunderground v.1.15,2013-02-17 21:10:00,
2013-02-17 16:15:00,30.2,1.7,29.78,SW,224,2.0,14.0,29,0.00,,,0.00,0,Wunderground v.1.15,2013-02-17 21:15:00,
2013-02-17 16:20:00,29.9,0.7,29.78,WNW,282,7.0,9.0,28,0.00,,,0.00,0,Wunderground v.1.15,2013-02-17 21:20:00,
2013-02-17 16:25:00,29.5,0.3,29.79,NW,319,5.0,17.0,28,0.00,,,0.00,0,Wunderground v.1.15,2013-02-17 21:25:00,
2013-02-17 16:30:00,29.4,0.3,29.79,WNW,288,8.0,8.0,28,0.00,,,0.00,0,Wunderground v.1.15,2013-02-17 21:30:00,
2013-02-17 16:35:00,29.6,0.4,29.80,WNW,286,18.0,25.0,28,0.00,,,0.00,0,Wunderground v.1.15,2013-02-17 21:35:00,
2013-02-17 16:40:00,29.6,-0.3,29.80,NNW,346,3.0,3.0,27,0.00,,,0.00,0,Wunderground v.1.15,2013-02-17 21:40:00,
2013-02-17 16:45:00,29.7,0.5,29.80,WNW,292,5.0,15.0,28,0.00,,,0.00,0,Wunderground v.1.15,2013-02-17 21:45:00,
2013-02-17 16:50:00,29.6,1.2,29.80,NW,305,5.0,5.0,29,0.00,,,0.00,0,Wunderground v.1.15,2013-02-17 21:50:00,
2013-02-17 16:55:00,29.5,1.8,29.80,WNW,298,6.0,19.0,30,0.00,,,0.00,0,Wunderground v.1.15,2013-02-17 21:55:00,
2013-02-17 17:00:00,29.3,0.9,29.81,NNW,343,19.0,19.0,29,0.00,,,0.00,0,Wunderground v.1.15,2013-02-17 22:00:00,
2013-02-17 17:05:00,28.9,0.6,29.81,NNW,343,13.0,19.0,29,0.00,,,0.00,0,Wunderground v.1.15,2013-02-17 22:05:00,
2013-02-17 17:10:00,28.9,0.6,29.81,NW,309,8.0,8.0,29,0.00,,,0.00,0,Wunderground v.1.15,2013-02-17 22:10:00,
2013-02-17 17:15:00,28.8,1.2,29.82,North,349,7.0,20.0,30,0.00,,,0.00,0,Wunderground v.1.15,2013-02-17 22:15:00,
2013-02-17 17:20:00,28.5,1.6,29.82,NW,320,9.0,9.0,31,0.00,,,0.00,0,Wunderground v.1.15,2013-02-17 22:20:00,
2013-02-17 17:25:00,28.4,2.2,29.82,WNW,300,7.0,16.0,32,0.00,,,0.00,0,Wunderground v.1.15,2013-02-17 22:25:00,
2013-02-17 17:30:00,28.3,2.8,29.82,NNW,340,11.0,11.0,33,0.00,,,0.00,0,Wunderground v.1.15,2013-02-17 22:30:00,
2013-02-17 17:35:00,28.2,2.1,29.83,WNW,301,8.0,24.0,32,0.00,,,0.00,0,Wunderground v.1.15,2013-02-17 22:35:00,
2013-02-17 17:40:00,28.2,1.4,29.83,NW,305,9.0,9.0,31,0.00,,,0.00,0,Wunderground v.1.15,2013-02-17 22:40:00,
2013-02-17 17:45:00,28.3,2.2,29.83,WNW,282,6.0,30.0,32,0.00,,,0.00,0,Wunderground v.1.15,2013-02-17 22:45:00,
2013-02-17 17:50:00,28.1,2.6,29.84,WNW,286,1.0,1.0,33,0.00,,,0.00,0,Wunderground v.1.15,2013-02-17 22:50:00,
2013-02-17 17:55:00,27.8,2.4,29.84,NW,320,3.0,10.0,33,0.00,,,0.00,0,Wunderground v.1.15,2013-02-17 22:55:00,
2013-02-17 18:00:00,27.7,2.3,29.84,NW,317,7.0,7.0,33,0.00,,,0.00,0,Wunderground v.1.15,2013-02-17 23:00:00,
2013-02-17 18:05:00,27.7,2.3,29.85,NNW,336,7.0,20.0,33,0.00,,,0.00,0,Wunderground v.1.15,2013-02-17 23:05:00,
2013-02-17 18:10:00,27.8,1.7,29.85,NNW,345,17.0,19.0,32,0.00,,,0.00,0,Wunderground v.1.15,2013-02-17 23:10:00,
2013-02-17 18:15:00,27.7,1.6,29.85,NNW,336,8.0,19.0,32,0.00,,,0.00,0,Wunderground v.1.15,2013-02-17 23:15:00,
2013-02-17 18:20:00,27.4,2.0,29.86,NW,305,9.0,15.0,33,0.00,,,0.00,0,Wunderground v.1.15,2013-02-17 23:20:00,
2013-02-17 18:25:00,27.0,2.3,29.86,NNW,343,4.0,22.0,34,0.00,,,0.00,0,Wunderground v.1.15,2013-02-17 23:25:00,
2013-02-17 18:30:00,26.9,2.2,29.86,NW,323,11.0,13.0,34,0.00,,,0.00,0,Wunderground v.1.15,2013-02-17 23:30:00,
2013-02-17 18:35:00,26.7,2.0,29.87,NW,311,9.0,13.0,34,0.00,,,0.00,0,Wunderground v.1.15,2013-02-17 23:35:00,
2013-02-17 18:40:00,26.7,2.7,29.87,NNW,346,1.0,7.0,35,0.00,,,0.00,0,Wunderground v.1.15,2013-02-17 23:40:00,
2013-02-17 18:45:00,26.6,2.6,29.87,NW,322,4.0,13.0,35,0.00,,,0.00,0,Wunderground v.1.15,2013-02-17 23:45:00,
2013-02-17 18:50:00,26.8,2.8,29.87,NW,315,1.0,6.0,35,0.00,,,0.00,0,Wunderground v.1.15,2013-02-17 23:50:00,
2013-02-17 18:55:00,26.9,2.2,29.87,NW,325,8.0,17.0,34,0.00,,,0.00,0,Wunderground v.1.15,2013-02-17 23:55:00,
2013-02-17 19:00:00,26.8,2.1,29.87,WNW,297,4.0,12.0,34,0.00,,,0.00,0,Wunderground v.1.15,2013-02-18 00:00:00,
2013-02-17 19:05:00,26.9,1.6,29.87,WNW,303,16.0,18.0,33,0.00,,,0.00,0,Wunderground v.1.15,2013-02-18 00:05:00,
2013-02-17 19:10:00,26.9,1.6,29.88,NW,321,8.0,8.0,33,0.00,,,0.00,0,Wunderground v.1.15,2013-02-18 00:10:00,
2013-02-17 19:15:00,27.0,1.7,29.88,NW,316,7.0,17.0,33,0.00,,,0.00,0,Wunderground v.1.15,2013-02-18 00:15:00,
2013-02-17 19:20:00,27.0,1.7,29.89,West,280,4.0,4.0,33,0.00,,,0.00,0,Wunderground v.1.15,2013-02-18 00:20:00,
2013-02-17 19:25:00,26.8,1.5,29.89,NW,311,11.0,16.0,33,0.00,,,0.00,0,Wunderground v.1.15,2013-02-18 00:25:00,
2013-02-17 19:30:00,26.9,1.6,29.89,West,270,5.0,11.0,33,0.00,,,0.00,0,Wunderground v.1.15,2013-02-18 00:30:00,
2013-02-17 19:35:00,26.7,1.4,29.89,NNW,328,4.0,14.0,33,0.00,,,0.00,0,Wunderground v.1.15,2013-02-18 00:35:00,
2013-02-17 19:40:00,26.3,1.0,29.90,NW,324,13.0,13.0,33,0.00,,,0.00,0,Wunderground v.1.15,2013-02-18 00:40:00,
2013-02-17 19:45:00,26.2,1.0,29.90,WNW,290,9.0,17.0,33,0.00,,,0.00,0,Wunderground v.1.15,2013-02-18 00:45:00,
2013-02-17 19:50:00,26.1,0.9,29.90,West,273,7.0,14.0,33,0.00,,,0.00,0,Wunderground v.1.15,2013-02-18 00:50:00,
2013-02-17 19:55:00,26.1,0.9,29.91,NW,306,9.0,17.0,33,0.00,,,0.00,0,Wunderground v.1.15,2013-02-18 00:55:00,
2013-02-17 20:01:00,25.9,0.7,29.91,North,352,8.0,12.0,33,0.00,,,0.00,0,Wunderground v.1.15,2013-02-18 01:01:00,
2013-02-17 20:06:00,25.8,0.6,29.91,WNW,294,4.0,15.0,33,0.00,,,0.00,0,Wunderground v.1.15,2013-02-18 01:06:00,
2013-02-17 20:11:00,25.6,0.4,29.91,NW,314,2.0,5.0,33,0.00,,,0.00,0,Wunderground v.1.15,2013-02-18 01:11:00,
2013-02-17 20:16:00,25.7,0.5,29.92,NNW,337,2.0,9.0,33,0.00,,,0.00,0,Wunderground v.1.15,2013-02-18 01:16:00,
2013-02-17 20:21:00,25.5,0.3,29.92,WNW,287,5.0,12.0,33,0.00,,,0.00,0,Wunderground v.1.15,2013-02-18 01:21:00,
2013-02-17 20:26:00,25.4,0.2,29.92,NW,313,12.0,19.0,33,0.00,,,0.00,0,Wunderground v.1.15,2013-02-18 01:26:00,
2013-02-17 20:31:00,25.5,0.3,29.93,NNW,331,4.0,6.0,33,0.00,,,0.00,0,Wunderground v.1.15,2013-02-18 01:31:00,
2013-02-17 20:36:00,25.3,0.2,29.93,NW,312,4.0,17.0,33,0.00,,,0.00,0,Wunderground v.1.15,2013-02-18 01:36:00,
2013-02-17 20:41:00,25.2,0.1,29.93,NW,311,4.0,15.0,33,0.00,,,0.00,0,Wunderground v.1.15,2013-02-18 01:41:00,
2013-02-17 20:46:00,25.2,0.7,29.94,NW,311,7.0,18.0,34,0.00,,,0.00,0,Wunderground v.1.15,2013-02-18 01:46:00,
2013-02-17 20:51:00,25.1,0.0,29.94,NNW,341,5.0,10.0,33,0.00,,,0.00,0,Wunderground v.1.15,2013-02-18 01:51:00,
2013-02-17 20:56:00,25.2,0.1,29.94,NNW,333,11.0,19.0,33,0.00,,,0.00,0,Wunderground v.1.15,2013-02-18 01:56:00,
2013-02-17 21:01:00,25.0,-0.1,29.94,WNW,292,4.0,11.0,33,0.00,,,0.00,0,Wunderground v.1.15,2013-02-18 02:01:00,
2013-02-17 21:06:00,25.1,-0.7,29.95,NW,304,8.0,17.0,32,0.00,,,0.00,0,Wunderground v.1.15,2013-02-18 02:06:00,
2013-02-17 21:11:00,24.9,-1.5,29.95,WNW,288,4.0,14.0,31,0.00,,,0.00,0,Wunderground v.1.15,2013-02-18 02:11:00,
2013-02-17 21:16:00,24.8,-1.6,29.95,NNW,348,4.0,14.0,31,0.00,,,0.00,0,Wunderground v.1.15,2013-02-18 02:16:00,
2013-02-17 21:21:00,24.5,-1.9,29.96,NW,310,3.0,10.0,31,0.00,,,0.00,0,Wunderground v.1.15,2013-02-18 02:21:00,
2013-02-17 21:26:00,24.4,-1.3,29.96,NNW,333,2.0,10.0,32,0.00,,,0.00,0,Wunderground v.1.15,2013-02-18 02:26:00,
2013-02-17 21:31:00,23.9,-2.4,29.96,NNW,338,12.0,17.0,31,0.00,,,0.00,0,Wunderground v.1.15,2013-02-18 02:31:00,
2013-02-17 21:36:00,23.8,-2.5,29.97,NNW,337,8.0,17.0,31,0.00,,,0.00,0,Wunderground v.1.15,2013-02-18 02:36:00,
2013-02-17 21:41:00,23.6,-2.7,29.97,NNW,330,3.0,13.0,31,0.00,,,0.00,0,Wunderground v.1.15,2013-02-18 02:41:00,
2013-02-17 21:46:00,23.6,-2.7,29.97,SW,231,2.0,18.0,31,0.00,,,0.00,0,Wunderground v.1.15,2013-02-18 02:46:00,
2013-02-17 21:51:00,23.5,-2.1,29.97,NNW,339,16.0,19.0,32,0.00,,,0.00,0,Wunderground v.1.15,2013-02-18 02:51:00,
2013-02-17 21:56:00,23.3,-2.9,29.98,NNW,327,8.0,19.0,31,0.00,,,0.00,0,Wunderground v.1.15,2013-02-18 02:56:00,
2013-02-17 22:01:00,23.3,-2.9,29.97,NW,305,8.0,19.0,31,0.00,,,0.00,0,Wunderground v.1.15,2013-02-18 03:01:00,
2013-02-17 22:06:00,23.0,-3.2,29.98,WNW,302,11.0,19.0,31,0.00,,,0.00,0,Wunderground v.1.15,2013-02-18 03:06:00,
2013-02-17 22:11:00,23.0,-3.2,29.98,NNW,330,3.0,26.0,31,0.00,,,0.00,0,Wunderground v.1.15,2013-02-18 03:11:00,
2013-02-17 22:16:00,22.7,-3.5,29.98,NW,325,9.0,26.0,31,0.00,,,0.00,0,Wunderground v.1.15,2013-02-18 03:16:00,
2013-02-17 22:21:00,22.7,-4.1,29.98,WNW,293,10.0,17.0,30,0.00,,,0.00,0,Wunderground v.1.15,2013-02-18 03:21:00,
2013-02-17 22:26:00,22.5,-5.0,29.99,NW,315,12.0,18.0,29,0.00,,,0.00,0,Wunderground v.1.15,2013-02-18 03:26:00,
2013-02-17 22:31:00,22.3,-4.5,29.99,West,276,11.0,13.0,30,0.00,,,0.00,0,Wunderground v.1.15,2013-02-18 03:31:00,
2013-02-17 22:36:00,22.1,-4.7,29.99,NW,313,8.0,19.0,30,0.00,,,0.00,0,Wunderground v.1.15,2013-02-18 03:36:00,
2013-02-17 22:41:00,21.9,-4.9,30.00,NNW,338,8.0,15.0,30,0.00,,,0.00,0,Wunderground v.1.15,2013-02-18 03:41:00,
2013-02-17 22:46:00,21.7,-5.0,29.99,NNW,329,22.0,34.0,30,0.00,,,0.00,0,Wunderground v.1.15,2013-02-18 03:46:00,
2013-02-17 22:51:00,21.4,-5.3,30.00,NW,310,6.0,18.0,30,0.00,,,0.00,0,Wunderground v.1.15,2013-02-18 03:51:00,
2013-02-17 22:56:00,21.3,-5.4,30.00,NW,323,7.0,18.0,30,0.00,,,0.00,0,Wunderground v.1.15,2013-02-18 03:56:00,
2013-02-17 23:01:00,21.1,-4.9,30.01,NW,312,4.0,13.0,31,0.00,,,0.00,0,Wunderground v.1.15,2013-02-18 04:01:00,
2013-02-17 23:06:00,21.1,-4.9,30.01,NNW,335,8.0,19.0,31,0.00,,,0.00,0,Wunderground v.1.15,2013-02-18 04:06:00,
2013-02-17 23:11:00,20.9,-5.0,30.01,NW,309,5.0,11.0,31,0.00,,,0.00,0,Wunderground v.1.15,2013-02-18 04:11:00,
2013-02-17 23:16:00,20.7,-4.6,30.01,NW,308,11.0,19.0,32,0.00,,,0.00,0,Wunderground v.1.15,2013-02-18 04:16:00,
2013-02-17 23:21:00,20.6,-4.7,30.01,WNW,284,7.0,14.0,32,0.00,,,0.00,0,Wunderground v.1.15,2013-02-18 04:21:00,
2013-02-17 23:26:00,20.6,-4.7,30.01,WNW,295,9.0,21.0,32,0.00,,,0.00,0,Wunderground v.1.15,2013-02-18 04:26:00,
2013-02-17 23:31:00,20.5,-4.7,30.02,WNW,303,4.0,9.0,32,0.00,,,0.00,0,Wunderground v.1.15,2013-02-18 04:31:00,
2013-02-17 23:36:00,20.4,-4.2,30.02,WNW,298,8.0,23.0,33,0.00,,,0.00,0,Wunderground v.1.15,2013-02-18 04:36:00,
2013-02-17 23:41:00,20.5,-4.1,30.02,WNW,295,3.0,6.0,33,0.00,,,0.00,0,Wunderground v.1.15,2013-02-18 04:41:00,
2013-02-17 23:47:00,20.1,-4.5,30.02,NNW,329,5.0,17.0,33,0.00,,,0.00,0,Wunderground v.1.15,2013-02-18 04:47:00,
2013-02-17 23:51:00,20.2,-4.4,30.02,West,275,9.0,18.0,33,0.00,,,0.00,0,Wunderground v.1.15,2013-02-18 04:51:00,
2013-02-17 23:56:00,20.4,-4.2,30.01,NNW,341,7.0,23.0,33,0.00,,,0.00,0,Wunderground v.1.15,2013-02-18 04:56:00,